| time (UTC) | temp C | wind direction | speed KPH | gust KPH | rain 1hr cm | rain 24hr cm | rain mn cm | humidity % | barometer mb |
| 20260510022421 | 23 | 16 | 3.2 | 6.4 | 0.00 | 0.00 | 0.00 | 55 | 1025.1 |
| 20260510021921 | 23 | 22 | 4.8 | 9.7 | 0.00 | 0.00 | 0.00 | 55 | 1025.1 |
| 20260510021421 | 23 | 21 | 6.4 | 14.5 | 0.00 | 0.00 | 0.00 | 56 | 1025.2 |
| 20260510020921 | 23 | 20 | 6.4 | 16.1 | 0.00 | 0.00 | 0.00 | 56 | 1025.2 |
| 20260510020421 | 23 | 22 | 3.2 | 16.1 | 0.00 | 0.00 | 0.00 | 57 | 1025.3 |
| 20260510015921 | 23 | 24 | 3.2 | 17.7 | 0.00 | 0.00 | 0.00 | 56 | 1025.4 |
| 20260510015421 | 23 | 28 | 3.2 | 8.0 | 0.00 | 0.00 | 0.00 | 58 | 1025.6 |
| 20260510014921 | 22 | 24 | 4.8 | 16.1 | 0.00 | 0.00 | 0.00 | 58 | 1025.7 |
| 20260510014421 | 22 | 24 | 3.2 | 14.5 | 0.00 | 0.00 | 0.00 | 58 | 1025.7 |
| 20260510013921 | 22 | 24 | 3.2 | 8.0 | 0.00 | 0.00 | 0.00 | 60 | 1025.7 |
| 20260510013421 | 22 | 25 | 4.8 | 14.5 | 0.00 | 0.00 | 0.00 | 59 | 1025.8 |
| 20260510012921 | 22 | 23 | 6.4 | 12.9 | 0.00 | 0.00 | 0.00 | 59 | 1026.0 |
| 20260510012421 | 22 | 22 | 4.8 | 16.1 | 0.00 | 0.00 | 0.00 | 59 | 1026.2 |
| 20260510011921 | 22 | 23 | 3.2 | 12.9 | 0.00 | 0.00 | 0.00 | 59 | 1026.3 |
| 20260510011421 | 22 | 28 | 1.6 | 11.3 | 0.00 | 0.00 | 0.00 | 60 | 1026.4 |
| 20260510010921 | 22 | 17 | 1.6 | 8.0 | 0.00 | 0.00 | 0.00 | 60 | 1026.5 |
| 20260510010421 | 21 | 16 | 1.6 | 3.2 | 0.00 | 0.00 | 0.00 | 62 | 1026.6 |
| 20260510005921 | 21 | 13 | 3.2 | 8.0 | 0.00 | 0.00 | 0.00 | 62 | 1026.7 |
| 20260510005421 | 21 | 17 | 3.2 | 14.5 | 0.00 | 0.00 | 0.00 | 61 | 1026.7 |
| 20260510004921 | 21 | 22 | 1.6 | 8.0 | 0.00 | 0.00 | 0.00 | 62 | 1026.7 |
| 20260510004421 | 21 | 21 | 1.6 | 6.4 | 0.00 | 0.00 | 0.00 | 62 | 1026.8 |
| 20260510003921 | 21 | 19 | 1.6 | 8.0 | 0.00 | 0.00 | 0.00 | 62 | 1026.8 |
| 20260510003421 | 21 | 19 | 0.0 | 3.2 | 0.00 | 0.00 | 0.00 | 64 | 1026.9 |
| 20260510002921 | 20 | 22 | 0.0 | 3.2 | 0.00 | 0.00 | 0.00 | 64 | 1027.0 |
| 20260510002421 | 20 | 49 | 0.0 | 0.0 | 0.00 | 0.00 | 0.00 | 63 | 1027.0 |
| 20260510001921 | 20 | 59 | 0.0 | 0.0 | 0.00 | 0.00 | 0.00 | 63 | 1027.2 |
| 20260510001421 | 20 | 57 | 0.0 | 3.2 | 0.00 | 0.00 | 0.00 | 64 | 1027.2 |
| 20260510000921 | 19 | 97 | 0.0 | 1.6 | 0.00 | 0.00 | 0.00 | 64 | 1027.2 |
| 20260510000421 | 18 | 79 | 0.0 | 3.2 | 0.00 | 0.00 | 0.00 | 66 | 1027.1 |
| 20260509235921 | 18 | 76 | 0.0 | 0.0 | 0.00 | 0.00 | 0.00 | 65 | 1027.3 |
| 20260509235421 | 18 | 80 | 0.0 | 1.6 | 0.00 | 0.00 | 0.00 | 64 | 1027.4 |
| 20260509234921 | 18 | 84 | 0.0 | 3.2 | 0.00 | 0.00 | 0.00 | 66 | 1027.4 |
| 20260509234421 | 18 | 84 | 0.0 | 3.2 | 0.00 | 0.00 | 0.00 | 65 | 1027.5 |
| 20260509233921 | 18 | 107 | 0.0 | 6.4 | 0.00 | 0.00 | 0.00 | 66 | 1027.4 |
| 20260509233421 | 17 | 102 | 0.0 | 1.6 | 0.00 | 0.00 | 0.00 | 69 | 1027.4 |
| 20260509232921 | 17 | 125 | 0.0 | 1.6 | 0.00 | 0.00 | 0.00 | 69 | 1027.6 |
| 20260509232421 | 17 | 90 | 0.0 | 3.2 | 0.00 | 0.00 | 0.00 | 69 | 1027.6 |
| 20260509231921 | 16 | 111 | 0.0 | 1.6 | 0.00 | 0.00 | 0.00 | 72 | 1027.6 |
| 20260509231421 | 16 | 82 | 0.0 | 1.6 | 0.00 | 0.00 | 0.00 | 73 | 1027.5 |
| 20260509230921 | 16 | 86 | 0.0 | 1.6 | 0.00 | 0.00 | 0.00 | 73 | 1027.5 |
| 20260509230421 | 15 | 100 | 0.0 | 1.6 | 0.00 | 0.00 | 0.00 | 74 | 1027.3 |
| 20260509225921 | 15 | 96 | 0.0 | 1.6 | 0.00 | 0.00 | 0.00 | 75 | 1027.2 |
| 20260509225421 | 15 | 86 | 0.0 | 1.6 | 0.00 | 0.00 | 0.00 | 78 | 1027.0 |
| 20260509224921 | 14 | 141 | 0.0 | 1.6 | 0.00 | 0.00 | 0.00 | 79 | 1026.9 |
| 20260509224421 | 13 | 133 | 0.0 | 1.6 | 0.00 | 0.00 | 0.00 | 81 | 1026.7 |
| 20260509223921 | 13 | 118 | 0.0 | 1.6 | 0.00 | 0.00 | 0.00 | 84 | 1026.8 |
| 20260509223421 | 12 | 42 | 0.0 | 1.6 | 0.00 | 0.00 | 0.00 | 84 | 1026.7 |
| 20260509222921 | 12 | 45 | 0.0 | 1.6 | 0.00 | 0.00 | 0.00 | 85 | 1026.8 |
| 20260509222421 | 12 | 40 | 0.0 | 1.6 | 0.00 | 0.00 | 0.00 | 86 | 1026.7 |
| 20260509221921 | 11 | 43 | 0.0 | 1.6 | 0.00 | 0.00 | 0.00 | 87 | 1026.6 |
| 20260509221421 | 11 | 41 | 0.0 | 1.6 | 0.00 | 0.00 | 0.00 | 87 | 1026.5 |
| 20260509220921 | 11 | 46 | 0.0 | 1.6 | 0.00 | 0.00 | 0.00 | 89 | 1026.4 |
| 20260509220421 | 10 | 49 | 0.0 | 1.6 | 0.00 | 0.00 | 0.00 | 90 | 1026.2 |
| 20260509215921 | 10 | 51 | 0.0 | 1.6 | 0.00 | 0.00 | 0.00 | 90 | 1026.3 |
| 20260509215421 | 10 | 53 | 0.0 | 1.6 | 0.00 | 0.00 | 0.00 | 90 | 1026.2 |
| 20260509214921 | 9 | 53 | 0.0 | 1.6 | 0.00 | 0.00 | 0.00 | 90 | 1026.2 |
| 20260509214421 | 9 | 54 | 0.0 | 1.6 | 0.00 | 0.00 | 0.00 | 89 | 1026.3 |
| 20260509213921 | 9 | 54 | 0.0 | 1.6 | 0.00 | 0.00 | 0.00 | 89 | 1026.2 |
| 20260509213421 | 9 | 54 | 0.0 | 1.6 | 0.00 | 0.00 | 0.00 | 89 | 1026.1 |
| 20260509212921 | 9 | 54 | 0.0 | 1.6 | 0.00 | 0.00 | 0.00 | 89 | 1026.2 |
| 20260509212421 | 9 | 54 | 0.0 | 1.6 | 0.00 | 0.00 | 0.00 | 89 | 1026.2 |
| 20260509211921 | 9 | 54 | 0.0 | 1.6 | 0.00 | 0.00 | 0.00 | 89 | 1026.1 |
| 20260509211421 | 10 | 54 | 0.0 | 1.6 | 0.00 | 0.00 | 0.00 | 89 | 1026.1 |
| 20260509210921 | 10 | 54 | 0.0 | 1.6 | 0.00 | 0.00 | 0.00 | 89 | 1026.0 |
| 20260509210421 | 10 | 54 | 0.0 | 1.6 | 0.00 | 0.00 | 0.00 | 89 | 1025.8 |
| 20260509205921 | 10 | 54 | 0.0 | 1.6 | 0.00 | 0.00 | 0.00 | 89 | 1025.7 |
| 20260509205421 | 10 | 54 | 0.0 | 1.6 | 0.00 | 0.00 | 0.00 | 89 | 1025.5 |
| 20260509204921 | 10 | 54 | 0.0 | 1.6 | 0.00 | 0.00 | 0.00 | 89 | 1025.5 |
| 20260509204421 | 10 | 53 | 0.0 | 1.6 | 0.00 | 0.00 | 0.00 | 89 | 1025.4 |
| 20260509203921 | 10 | 53 | 0.0 | 1.6 | 0.00 | 0.00 | 0.00 | 89 | 1025.3 |
| 20260509203421 | 10 | 52 | 0.0 | 1.6 | 0.00 | 0.00 | 0.00 | 90 | 1025.2 |
| 20260509202921 | 9 | 53 | 0.0 | 1.6 | 0.00 | 0.00 | 0.00 | 89 | 1025.3 |
| 20260509202421 | 9 | 53 | 0.0 | 1.6 | 0.00 | 0.00 | 0.00 | 89 | 1025.2 |
| 20260509201921 | 9 | 53 | 1.6 | 3.2 | 0.00 | 0.00 | 0.00 | 90 | 1025.1 |
| 20260509201421 | 9 | 53 | 0.0 | 3.2 | 0.00 | 0.00 | 0.00 | 89 | 1025.1 |
| 20260509200921 | 9 | 53 | 0.0 | 1.6 | 0.00 | 0.00 | 0.00 | 89 | 1025.0 |
| 20260509200421 | 9 | 53 | 0.0 | 1.6 | 0.00 | 0.00 | 0.00 | 89 | 1025.0 |
| 20260509195921 | 9 | 53 | 0.0 | 3.2 | 0.00 | 0.00 | 0.00 | 89 | 1024.9 |
| 20260509195421 | 9 | 53 | 1.6 | 3.2 | 0.00 | 0.00 | 0.00 | 89 | 1025.0 |
| 20260509194921 | 9 | 53 | 1.6 | 3.2 | 0.00 | 0.00 | 0.00 | 89 | 1024.9 |
| 20260509194421 | 9 | 53 | 1.6 | 4.8 | 0.00 | 0.00 | 0.00 | 89 | 1024.9 |
| 20260509193921 | 9 | 52 | 0.0 | 1.6 | 0.00 | 0.00 | 0.00 | 89 | 1024.8 |
| 20260509193421 | 9 | 52 | 0.0 | 1.6 | 0.00 | 0.00 | 0.00 | 89 | 1024.9 |
| 20260509192921 | 9 | 52 | 0.0 | 1.6 | 0.00 | 0.00 | 0.00 | 89 | 1024.8 |
| 20260509192421 | 9 | 52 | 0.0 | 1.6 | 0.00 | 0.00 | 0.00 | 88 | 1024.9 |
| 20260509191921 | 9 | 52 | 0.0 | 1.6 | 0.00 | 0.00 | 0.00 | 88 | 1024.8 |
| 20260509191421 | 10 | 52 | 0.0 | 1.6 | 0.00 | 0.00 | 0.00 | 88 | 1024.9 |
| 20260509190921 | 10 | 52 | 0.0 | 1.6 | 0.00 | 0.00 | 0.00 | 89 | 1024.9 |
| 20260509190421 | 10 | 52 | 0.0 | 1.6 | 0.00 | 0.00 | 0.00 | 88 | 1024.8 |
| 20260509185921 | 9 | 52 | 0.0 | 1.6 | 0.00 | 0.00 | 0.00 | 88 | 1024.7 |
| 20260509185421 | 10 | 53 | 0.0 | 1.6 | 0.00 | 0.00 | 0.00 | 87 | 1024.6 |
| 20260509184921 | 10 | 53 | 0.0 | 1.6 | 0.00 | 0.00 | 0.00 | 87 | 1024.5 |
| 20260509184421 | 10 | 53 | 0.0 | 1.6 | 0.00 | 0.00 | 0.00 | 86 | 1024.4 |
| 20260509183921 | 10 | 53 | 0.0 | 1.6 | 0.00 | 0.00 | 0.00 | 87 | 1024.6 |
| 20260509183421 | 10 | 53 | 0.0 | 1.6 | 0.00 | 0.00 | 0.00 | 87 | 1024.6 |
| 20260509182921 | 10 | 53 | 0.0 | 1.6 | 0.00 | 0.00 | 0.00 | 86 | 1024.4 |
| 20260509182421 | 10 | 53 | 0.0 | 1.6 | 0.00 | 0.00 | 0.00 | 86 | 1024.4 |
| 20260509181921 | 10 | 53 | 0.0 | 1.6 | 0.00 | 0.00 | 0.00 | 85 | 1024.5 |
| 20260509181421 | 10 | 53 | 0.0 | 1.6 | 0.00 | 0.00 | 0.00 | 85 | 1024.5 |
| 20260509180921 | 10 | 53 | 0.0 | 1.6 | 0.00 | 0.00 | 0.00 | 85 | 1024.6 |
| 20260509180421 | 11 | 52 | 0.0 | 1.6 | 0.00 | 0.00 | 0.00 | 85 | 1024.5 |
| 20260509175921 | 11 | 52 | 0.0 | 1.6 | 0.00 | 0.00 | 0.00 | 85 | 1024.4 |
| 20260509175421 | 11 | 52 | 0.0 | 1.6 | 0.00 | 0.00 | 0.00 | 85 | 1024.5 |
| 20260509174921 | 11 | 52 | 0.0 | 1.6 | 0.00 | 0.00 | 0.00 | 84 | 1024.5 |
| 20260509174421 | 11 | 51 | 0.0 | 1.6 | 0.00 | 0.00 | 0.00 | 84 | 1024.4 |
| 20260509173922 | 11 | 51 | 0.0 | 1.6 | 0.00 | 0.00 | 0.00 | 84 | 1024.4 |
| 20260509173421 | 11 | 51 | 0.0 | 1.6 | 0.00 | 0.00 | 0.00 | 84 | 1024.2 |
| 20260509172921 | 11 | 51 | 0.0 | 1.6 | 0.00 | 0.00 | 0.00 | 84 | 1024.2 |
| 20260509172421 | 11 | 51 | 0.0 | 1.6 | 0.00 | 0.00 | 0.00 | 85 | 1024.1 |
| 20260509171921 | 11 | 51 | 0.0 | 1.6 | 0.00 | 0.00 | 0.00 | 84 | 1024.2 |
| 20260509171421 | 11 | 51 | 0.0 | 1.6 | 0.00 | 0.00 | 0.00 | 84 | 1024.1 |
| 20260509170921 | 11 | 51 | 0.0 | 1.6 | 0.00 | 0.00 | 0.00 | 85 | 1024.1 |
| 20260509170421 | 11 | 50 | 0.0 | 1.6 | 0.00 | 0.00 | 0.00 | 85 | 1024.1 |
| 20260509165921 | 11 | 50 | 0.0 | 1.6 | 0.00 | 0.00 | 0.00 | 85 | 1024.1 |
| 20260509165422 | 11 | 50 | 0.0 | 1.6 | 0.00 | 0.00 | 0.00 | 85 | 1024.2 |
| 20260509164922 | 11 | 49 | 0.0 | 1.6 | 0.00 | 0.00 | 0.00 | 84 | 1024.2 |
| 20260509164422 | 11 | 49 | 0.0 | 1.6 | 0.00 | 0.00 | 0.00 | 84 | 1024.2 |
| 20260509163922 | 11 | 48 | 0.0 | 1.6 | 0.00 | 0.00 | 0.00 | 84 | 1024.2 |
| 20260509163422 | 11 | 48 | 0.0 | 1.6 | 0.00 | 0.00 | 0.00 | 84 | 1024.2 |
| 20260509162922 | 11 | 48 | 1.6 | 3.2 | 0.00 | 0.00 | 0.00 | 84 | 1024.3 |
| 20260509162422 | 11 | 48 | 1.6 | 4.8 | 0.00 | 0.00 | 0.00 | 84 | 1024.3 |
| 20260509161922 | 11 | 48 | 3.2 | 3.2 | 0.00 | 0.00 | 0.00 | 85 | 1024.3 |
| 20260509161422 | 11 | 48 | 4.8 | 6.4 | 0.00 | 0.00 | 0.00 | 85 | 1024.3 |
| 20260509160922 | 11 | 37 | 6.4 | 8.0 | 0.00 | 0.00 | 0.00 | 85 | 1024.3 |
| 20260509160422 | 11 | 46 | 6.4 | 8.0 | 0.00 | 0.00 | 0.00 | 84 | 1024.3 |
| 20260509155922 | 11 | 49 | 4.8 | 9.7 | 0.00 | 0.00 | 0.00 | 83 | 1024.3 |
| 20260509155422 | 11 | 49 | 6.4 | 8.0 | 0.00 | 0.00 | 0.00 | 82 | 1024.3 |
| 20260509154922 | 11 | 36 | 4.8 | 11.3 | 0.00 | 0.00 | 0.00 | 83 | 1024.3 |
| 20260509154422 | 11 | 49 | 1.6 | 9.7 | 0.00 | 0.00 | 0.00 | 81 | 1024.3 |
| 20260509153922 | 11 | 45 | 1.6 | 3.2 | 0.00 | 0.00 | 0.00 | 82 | 1024.2 |
| 20260509153422 | 11 | 26 | 3.2 | 6.4 | 0.00 | 0.00 | 0.00 | 82 | 1024.2 |
| 20260509152922 | 11 | 47 | 1.6 | 6.4 | 0.00 | 0.00 | 0.00 | 80 | 1024.1 |
| 20260509152422 | 12 | 170 | 0.0 | 1.6 | 0.00 | 0.00 | 0.00 | 80 | 1024.0 |
| 20260509151922 | 12 | 165 | 0.0 | 1.6 | 0.00 | 0.00 | 0.00 | 79 | 1024.1 |
| 20260509151422 | 12 | 146 | 0.0 | 1.6 | 0.00 | 0.00 | 0.00 | 78 | 1024.2 |
| 20260509150922 | 12 | 144 | 0.0 | 1.6 | 0.00 | 0.00 | 0.00 | 78 | 1024.2 |
| 20260509150422 | 12 | 138 | 0.0 | 1.6 | 0.00 | 0.00 | 0.00 | 78 | 1024.3 |
| 20260509145922 | 12 | 140 | 1.6 | 3.2 | 0.00 | 0.00 | 0.00 | 78 | 1024.4 |
| 20260509145422 | 12 | 146 | 3.2 | 4.8 | 0.00 | 0.00 | 0.00 | 78 | 1024.3 |
| 20260509144922 | 12 | 144 | 3.2 | 4.8 | 0.00 | 0.00 | 0.00 | 79 | 1024.4 |
| 20260509144422 | 12 | 152 | 1.6 | 6.4 | 0.00 | 0.00 | 0.00 | 78 | 1024.4 |
| 20260509143922 | 12 | 164 | 0.0 | 4.8 | 0.00 | 0.00 | 0.00 | 77 | 1024.5 |
| 20260509143422 | 13 | 38 | 0.0 | 1.6 | 0.00 | 0.00 | 0.00 | 76 | 1024.5 |
| 20260509142922 | 13 | 36 | 1.6 | 3.2 | 0.00 | 0.00 | 0.00 | 75 | 1024.6 |
| 20260509142422 | 13 | 34 | 0.0 | 3.2 | 0.00 | 0.00 | 0.00 | 75 | 1024.6 |
| 20260509141922 | 13 | 33 | 0.0 | 1.6 | 0.00 | 0.00 | 0.00 | 74 | 1024.6 |
| 20260509141422 | 13 | 32 | 1.6 | 1.6 | 0.00 | 0.00 | 0.00 | 74 | 1024.6 |
| 20260509140922 | 13 | 32 | 1.6 | 3.2 | 0.00 | 0.00 | 0.00 | 74 | 1024.5 |
| 20260509140422 | 13 | 32 | 0.0 | 4.8 | 0.00 | 0.00 | 0.00 | 73 | 1024.5 |
| 20260509135922 | 14 | 30 | 0.0 | 1.6 | 0.00 | 0.00 | 0.00 | 72 | 1024.6 |
| 20260509135422 | 14 | 19 | 0.0 | 1.6 | 0.00 | 0.00 | 0.00 | 71 | 1024.6 |
| 20260509134922 | 15 | 130 | 0.0 | 1.6 | 0.00 | 0.00 | 0.00 | 71 | 1024.8 |
| 20260509134422 | 15 | 134 | 0.0 | 1.6 | 0.00 | 0.00 | 0.00 | 70 | 1024.8 |
| 20260509133922 | 15 | 128 | 0.0 | 1.6 | 0.00 | 0.00 | 0.00 | 70 | 1024.9 |
| 20260509133422 | 15 | 128 | 0.0 | 1.6 | 0.00 | 0.00 | 0.00 | 70 | 1024.8 |
| 20260509132922 | 15 | 128 | 0.0 | 1.6 | 0.00 | 0.00 | 0.00 | 70 | 1024.9 |
| 20260509132422 | 15 | 31 | 0.0 | 1.6 | 0.00 | 0.00 | 0.00 | 70 | 1024.9 |
| 20260509131922 | 15 | 32 | 0.0 | 1.6 | 0.00 | 0.00 | 0.00 | 69 | 1024.8 |
| 20260509131422 | 15 | 31 | 0.0 | 1.6 | 0.00 | 0.00 | 0.00 | 69 | 1024.9 |
| 20260509130922 | 15 | 30 | 0.0 | 1.6 | 0.00 | 0.00 | 0.00 | 70 | 1024.9 |
| 20260509130422 | 15 | 30 | 0.0 | 1.6 | 0.00 | 0.00 | 0.00 | 71 | 1024.9 |
| 20260509125922 | 15 | 30 | 0.0 | 1.6 | 0.00 | 0.00 | 0.00 | 71 | 1024.9 |
| 20260509125422 | 15 | 30 | 0.0 | 1.6 | 0.00 | 0.00 | 0.00 | 70 | 1024.8 |
| 20260509124922 | 15 | 20 | 0.0 | 1.6 | 0.00 | 0.00 | 0.00 | 70 | 1024.8 |
| 20260509124422 | 15 | 121 | 0.0 | 1.6 | 0.00 | 0.00 | 0.00 | 70 | 1024.7 |
| 20260509123922 | 15 | 126 | 0.0 | 1.6 | 0.00 | 0.00 | 0.00 | 70 | 1024.8 |
| 20260509123422 | 15 | 129 | 0.0 | 1.6 | 0.00 | 0.00 | 0.00 | 70 | 1024.7 |
| 20260509122922 | 15 | 128 | 0.0 | 1.6 | 0.00 | 0.00 | 0.00 | 70 | 1024.8 |
| 20260509122422 | 15 | 130 | 0.0 | 1.6 | 0.00 | 0.00 | 0.00 | 69 | 1024.8 |
| 20260509121922 | 15 | 132 | 0.0 | 1.6 | 0.00 | 0.00 | 0.00 | 70 | 1024.7 |
| 20260509121422 | 15 | 128 | 1.6 | 1.6 | 0.00 | 0.00 | 0.00 | 70 | 1024.7 |
| 20260509120922 | 15 | 117 | 1.6 | 4.8 | 0.00 | 0.00 | 0.00 | 70 | 1024.8 |
| 20260509120422 | 15 | 113 | 3.2 | 4.8 | 0.00 | 0.00 | 0.00 | 70 | 1024.8 |
| 20260509115922 | 15 | 111 | 3.2 | 6.4 | 0.00 | 0.00 | 0.00 | 70 | 1024.8 |
| 20260509115422 | 15 | 111 | 1.6 | 3.2 | 0.00 | 0.00 | 0.00 | 68 | 1024.8 |
| 20260509114922 | 16 | 71 | 1.6 | 3.2 | 0.00 | 0.00 | 0.00 | 65 | 1024.8 |
| 20260509114422 | 17 | 22 | 1.6 | 3.2 | 0.00 | 0.00 | 0.00 | 64 | 1024.8 |
| 20260509113922 | 17 | 22 | 3.2 | 4.8 | 0.00 | 0.00 | 0.00 | 64 | 1024.8 |
| 20260509113422 | 17 | 27 | 3.2 | 6.4 | 0.00 | 0.00 | 0.00 | 64 | 1024.8 |
| 20260509112922 | 17 | 24 | 3.2 | 6.4 | 0.00 | 0.00 | 0.00 | 63 | 1024.7 |
| 20260509112422 | 17 | 28 | 3.2 | 6.4 | 0.00 | 0.00 | 0.00 | 64 | 1024.8 |
| 20260509111922 | 17 | 24 | 3.2 | 4.8 | 0.00 | 0.00 | 0.00 | 63 | 1024.7 |
| 20260509111422 | 17 | 28 | 3.2 | 6.4 | 0.00 | 0.00 | 0.00 | 63 | 1024.8 |
| 20260509110922 | 17 | 28 | 3.2 | 6.4 | 0.00 | 0.00 | 0.00 | 64 | 1024.7 |
| 20260509110422 | 17 | 23 | 4.8 | 6.4 | 0.00 | 0.00 | 0.00 | 64 | 1024.7 |
| 20260509105922 | 17 | 26 | 4.8 | 6.4 | 0.00 | 0.00 | 0.00 | 64 | 1024.7 |
| 20260509105422 | 17 | 23 | 3.2 | 6.4 | 0.00 | 0.00 | 0.00 | 64 | 1024.7 |
| 20260509104922 | 17 | 23 | 3.2 | 4.8 | 0.00 | 0.00 | 0.00 | 65 | 1024.7 |
| 20260509104422 | 17 | 22 | 3.2 | 4.8 | 0.00 | 0.00 | 0.00 | 65 | 1024.6 |
| 20260509103922 | 17 | 21 | 3.2 | 4.8 | 0.00 | 0.00 | 0.00 | 66 | 1024.6 |
| 20260509103422 | 17 | 28 | 3.2 | 4.8 | 0.00 | 0.00 | 0.00 | 66 | 1024.7 |
| 20260509102922 | 17 | 30 | 3.2 | 4.8 | 0.00 | 0.00 | 0.00 | 65 | 1024.6 |
| 20260509102422 | 17 | 22 | 3.2 | 4.8 | 0.00 | 0.00 | 0.00 | 65 | 1024.7 |
| 20260509101922 | 17 | 26 | 3.2 | 6.4 | 0.00 | 0.00 | 0.00 | 65 | 1024.6 |
| 20260509101422 | 17 | 26 | 1.6 | 4.8 | 0.00 | 0.00 | 0.00 | 65 | 1024.6 |
| 20260509100922 | 17 | 26 | 1.6 | 3.2 | 0.00 | 0.00 | 0.00 | 64 | 1024.5 |
| 20260509100422 | 17 | 26 | 1.6 | 3.2 | 0.00 | 0.00 | 0.00 | 64 | 1024.4 |
| 20260509095922 | 17 | 22 | 0.0 | 3.2 | 0.00 | 0.00 | 0.00 | 64 | 1024.4 |
| 20260509095422 | 18 | 14 | 0.0 | 3.2 | 0.00 | 0.00 | 0.00 | 63 | 1024.3 |
| 20260509094922 | 18 | 14 | 0.0 | 1.6 | 0.00 | 0.00 | 0.00 | 61 | 1024.3 |
| 20260509094422 | 18 | 14 | 0.0 | 3.2 | 0.00 | 0.00 | 0.00 | 61 | 1024.2 |
| 20260509093922 | 18 | 15 | 0.0 | 3.2 | 0.00 | 0.00 | 0.00 | 62 | 1024.2 |
| 20260509093422 | 18 | 13 | 0.0 | 0.0 | 0.00 | 0.00 | 0.00 | 62 | 1024.1 |
| 20260509092922 | 18 | 16 | 0.0 | 0.0 | 0.00 | 0.00 | 0.00 | 62 | 1024.0 |
| 20260509092422 | 18 | 20 | 0.0 | 0.0 | 0.00 | 0.00 | 0.00 | 62 | 1023.9 |
| 20260509091922 | 18 | 10 | 1.6 | 3.2 | 0.00 | 0.00 | 0.00 | 62 | 1023.8 |
| 20260509091422 | 18 | 98 | 1.6 | 4.8 | 0.00 | 0.00 | 0.00 | 62 | 1023.9 |
| 20260509090922 | 18 | 103 | 0.0 | 3.2 | 0.00 | 0.00 | 0.00 | 61 | 1023.8 |
| 20260509090422 | 18 | 22 | 0.0 | 1.6 | 0.00 | 0.00 | 0.00 | 61 | 1023.7 |
| 20260509085922 | 18 | 18 | 0.0 | 3.2 | 0.00 | 0.00 | 0.00 | 61 | 1023.7 |
| 20260509085422 | 18 | 22 | 0.0 | 0.0 | 0.00 | 0.00 | 0.00 | 60 | 1023.7 |
| 20260509084922 | 18 | 21 | 0.0 | 0.0 | 0.00 | 0.00 | 0.00 | 59 | 1023.5 |
| 20260509084423 | 19 | 22 | 0.0 | 0.0 | 0.00 | 0.00 | 0.00 | 58 | 1023.4 |
| 20260509083922 | 19 | 22 | 1.6 | 3.2 | 0.00 | 0.00 | 0.00 | 58 | 1023.1 |
| 20260509083422 | 19 | 13 | 1.6 | 4.8 | 0.00 | 0.00 | 0.00 | 58 | 1023.0 |
| 20260509082922 | 19 | 11 | 1.6 | 4.8 | 0.00 | 0.00 | 0.00 | 57 | 1023.0 |
| 20260509082422 | 19 | 24 | 1.6 | 6.4 | 0.00 | 0.00 | 0.00 | 56 | 1022.9 |
| 20260509081922 | 19 | 15 | 1.6 | 6.4 | 0.00 | 0.00 | 0.00 | 56 | 1022.8 |
| 20260509081422 | 19 | 19 | 1.6 | 6.4 | 0.00 | 0.00 | 0.00 | 56 | 1022.7 |
| 20260509080922 | 19 | 28 | 1.6 | 3.2 | 0.00 | 0.00 | 0.00 | 55 | 1022.7 |
| 20260509080422 | 20 | 22 | 0.0 | 3.2 | 0.00 | 0.00 | 0.00 | 55 | 1022.7 |
| 20260509075922 | 20 | 12 | 0.0 | 0.0 | 0.00 | 0.00 | 0.00 | 55 | 1022.6 |
| 20260509075422 | 20 | 12 | 0.0 | 0.0 | 0.00 | 0.00 | 0.00 | 54 | 1022.6 |
| 20260509074922 | 20 | 9 | 0.0 | 0.0 | 0.00 | 0.00 | 0.00 | 54 | 1022.6 |
| 20260509074422 | 20 | 9 | 0.0 | 0.0 | 0.00 | 0.00 | 0.00 | 53 | 1022.5 |
| 20260509073922 | 20 | 9 | 0.0 | 1.6 | 0.00 | 0.00 | 0.00 | 53 | 1022.6 |
| 20260509073422 | 20 | 15 | 0.0 | 0.0 | 0.00 | 0.00 | 0.00 | 52 | 1022.5 |
| 20260509072922 | 20 | 15 | 1.6 | 3.2 | 0.00 | 0.00 | 0.00 | 52 | 1022.4 |
| 20260509072422 | 21 | 73 | 1.6 | 6.4 | 0.00 | 0.00 | 0.00 | 52 | 1022.4 |
| 20260509071922 | 21 | 28 | 0.0 | 3.2 | 0.00 | 0.00 | 0.00 | 51 | 1022.4 |
| 20260509071422 | 21 | 5 | 1.6 | 3.2 | 0.00 | 0.00 | 0.00 | 51 | 1022.4 |
| 20260509070922 | 21 | 15 | 1.6 | 3.2 | 0.00 | 0.00 | 0.00 | 50 | 1022.4 |
| 20260509070422 | 21 | 76 | 1.6 | 3.2 | 0.00 | 0.00 | 0.00 | 50 | 1022.2 |
| 20260509065922 | 21 | 18 | 3.2 | 4.8 | 0.00 | 0.00 | 0.00 | 49 | 1022.1 |
| 20260509065422 | 22 | 59 | 1.6 | 6.4 | 0.00 | 0.00 | 0.00 | 48 | 1022.0 |
| 20260509064922 | 22 | 0 | 1.6 | 4.8 | 0.00 | 0.00 | 0.00 | 47 | 1021.9 |
| 20260509064422 | 22 | 9 | 1.6 | 6.4 | 0.00 | 0.00 | 0.00 | 47 | 1021.9 |
| 20260509063922 | 22 | 57 | 3.2 | 3.2 | 0.00 | 0.00 | 0.00 | 47 | 1021.8 |
| 20260509063422 | 22 | 17 | 3.2 | 8.0 | 0.00 | 0.00 | 0.00 | 46 | 1021.7 |
| 20260509062922 | 22 | 13 | 3.2 | 8.0 | 0.00 | 0.00 | 0.00 | 46 | 1021.7 |
| 20260509062422 | 22 | 11 | 3.2 | 6.4 | 0.00 | 0.00 | 0.00 | 46 | 1021.7 |
| 20260509061922 | 22 | 17 | 4.8 | 8.0 | 0.00 | 0.00 | 0.00 | 46 | 1021.6 |
| 20260509061422 | 22 | 15 | 4.8 | 8.0 | 0.00 | 0.00 | 0.00 | 46 | 1021.5 |
| 20260509060922 | 22 | 11 | 4.8 | 11.3 | 0.00 | 0.00 | 0.00 | 46 | 1021.6 |
| 20260509060422 | 22 | 19 | 4.8 | 12.9 | 0.00 | 0.00 | 0.00 | 46 | 1021.4 |
| 20260509055922 | 22 | 17 | 4.8 | 11.3 | 0.00 | 0.00 | 0.00 | 46 | 1021.3 |
| 20260509055422 | 22 | 19 | 4.8 | 12.9 | 0.00 | 0.00 | 0.00 | 45 | 1021.4 |
| 20260509054922 | 22 | 17 | 6.4 | 11.3 | 0.00 | 0.00 | 0.00 | 44 | 1021.3 |
| 20260509054422 | 22 | 18 | 8.0 | 14.5 | 0.00 | 0.00 | 0.00 | 44 | 1021.4 |
| 20260509053923 | 23 | 24 | 6.4 | 17.7 | 0.00 | 0.00 | 0.00 | 44 | 1021.4 |
| 20260509053422 | 23 | 23 | 4.8 | 12.9 | 0.00 | 0.00 | 0.00 | 44 | 1021.3 |
| 20260509052922 | 23 | 24 | 4.8 | 11.3 | 0.00 | 0.00 | 0.00 | 44 | 1021.3 |
| 20260509052422 | 23 | 19 | 3.2 | 12.9 | 0.00 | 0.00 | 0.00 | 44 | 1021.3 |
| 20260509051922 | 23 | 59 | 1.6 | 8.0 | 0.00 | 0.00 | 0.00 | 44 | 1021.3 |
| 20260509051423 | 23 | 66 | 0.0 | 4.8 | 0.00 | 0.00 | 0.00 | 45 | 1021.2 |
| 20260509050923 | 23 | 63 | 0.0 | 3.2 | 0.00 | 0.00 | 0.00 | 45 | 1021.2 |
| 20260509050423 | 23 | 11 | 3.2 | 3.2 | 0.00 | 0.00 | 0.00 | 44 | 1021.3 |
| 20260509045923 | 23 | 22 | 3.2 | 12.9 | 0.00 | 0.00 | 0.00 | 44 | 1021.2 |
| 20260509045423 | 23 | 24 | 1.6 | 11.3 | 0.00 | 0.00 | 0.00 | 44 | 1021.2 |
| 20260509044923 | 23 | 13 | 0.0 | 3.2 | 0.00 | 0.00 | 0.00 | 43 | 1021.2 |
| 20260509044423 | 23 | 21 | 1.6 | 0.0 | 0.00 | 0.00 | 0.00 | 43 | 1021.1 |
| 20260509043923 | 23 | 16 | 1.6 | 8.0 | 0.00 | 0.00 | 0.00 | 44 | 1021.2 |
| 20260509043423 | 23 | 24 | 1.6 | 6.4 | 0.00 | 0.00 | 0.00 | 42 | 1021.2 |
| 20260509042923 | 23 | 20 | 1.6 | 3.2 | 0.00 | 0.00 | 0.00 | 43 | 1021.2 |
| 20260509042423 | 23 | 37 | 1.6 | 9.7 | 0.00 | 0.00 | 0.00 | 42 | 1021.3 |
| 20260509041923 | 23 | 32 | 1.6 | 6.4 | 0.00 | 0.00 | 0.00 | 41 | 1021.3 |
| 20260509041423 | 23 | 23 | 3.2 | 8.0 | 0.00 | 0.00 | 0.00 | 43 | 1021.3 |
| 20260509040923 | 23 | 24 | 1.6 | 9.7 | 0.00 | 0.00 | 0.00 | 43 | 1021.3 |
| 20260509040423 | 23 | 61 | 0.0 | 3.2 | 0.00 | 0.00 | 0.00 | 45 | 1021.3 |
| 20260509035923 | 23 | 20 | 1.6 | 3.2 | 0.00 | 0.00 | 0.00 | 45 | 1021.3 |
| 20260509035423 | 23 | 68 | 1.6 | 8.0 | 0.00 | 0.00 | 0.00 | 46 | 1021.3 |
| 20260509034923 | 23 | 24 | 1.6 | 4.8 | 0.00 | 0.00 | 0.00 | 46 | 1021.3 |
| 20260509034423 | 23 | 0 | 1.6 | 4.8 | 0.00 | 0.00 | 0.00 | 46 | 1021.3 |
| 20260509033923 | 23 | 33 | 1.6 | 4.8 | 0.00 | 0.00 | 0.00 | 45 | 1021.3 |
| 20260509033423 | 23 | 18 | 0.0 | 3.2 | 0.00 | 0.00 | 0.00 | 45 | 1021.4 |
| 20260509032923 | 23 | 15 | 1.6 | 3.2 | 0.00 | 0.00 | 0.00 | 45 | 1021.3 |
| 20260509032423 | 23 | 11 | 1.6 | 14.5 | 0.00 | 0.00 | 0.00 | 45 | 1021.6 |
| 20260509031923 | 23 | 22 | 1.6 | 11.3 | 0.00 | 0.00 | 0.00 | 44 | 1021.6 |
| 20260509031423 | 23 | 21 | 0.0 | 6.4 | 0.00 | 0.00 | 0.00 | 46 | 1021.6 |
| 20260509030923 | 22 | 42 | 0.0 | 0.0 | 0.00 | 0.00 | 0.00 | 46 | 1021.6 |
| 20260509030423 | 22 | 17 | 1.6 | 3.2 | 0.00 | 0.00 | 0.00 | 47 | 1021.7 |
| 20260509025923 | 22 | 14 | 1.6 | 11.3 | 0.00 | 0.00 | 0.00 | 46 | 1021.8 |
| 20260509025423 | 22 | 29 | 1.6 | 11.3 | 0.00 | 0.00 | 0.00 | 47 | 1021.9 |
| 20260509024923 | 22 | 28 | 3.2 | 16.1 | 0.00 | 0.00 | 0.00 | 47 | 1022.0 |
| 20260509024423 | 22 | 77 | 6.4 | 12.9 | 0.00 | 0.00 | 0.00 | 47 | 1022.0 |
| 20260509023923 | 22 | 19 | 4.8 | 17.7 | 0.00 | 0.00 | 0.00 | 47 | 1022.1 |
| 20260509023423 | 22 | 26 | 4.8 | 12.9 | 0.00 | 0.00 | 0.00 | 48 | 1022.1 |
| 20260509022923 | 22 | 28 | 6.4 | 17.7 | 0.00 | 0.00 | 0.00 | 49 | 1022.1 |